,,Stat6,,Stat2,,Stat8,,Stat9,,Stat10,,Wind1,,Wind1,
time,status,PA1M_AVG,status,PR1M_SUM,status,RH1M_AVG,status,SR1M_AVG,status,TA1M_AVG,status,W1dAve1m,status,W1sAve1m,
2007-08-14, 00:00:00,VALID,918.404,VALID,0,VALID,100,VALID,-0.0679233,VALID,19.6232,VALID,60,VALID,0.0446429,
2007-08-14, 00:01:00,VALID,918.375,VALID,0,VALID,100,VALID,-0.0169808,VALID,19.6204,VALID,60,VALID,0.0372869,
2007-08-14, 00:02:00,VALID,918.329,VALID,0,VALID,100,VALID,0,VALID,19.6007,VALID,60,VALID,0.307355,
2007-08-14, 00:03:00,VALID,918.278,VALID,0,VALID,100,VALID,-0.0339617,VALID,19.598,VALID,51,VALID,0.277699,
2007-08-14, 00:04:00,VALID,918.24,VALID,0,VALID,100,VALID,0,VALID,19.5783,VALID,16,VALID,0.235709,
2007-08-14, 00:05:00,VALID,918.206,VALID,0,VALID,100,VALID,0,VALID,19.585,VALID,16,VALID,0.284801,
2007-08-14, 00:06:00,VALID,918.188,VALID,0,VALID,100,VALID,0,VALID,19.5813,VALID,16,VALID,0.119978,
2007-08-14, 00:07:00,VALID,918.187,VALID,0,VALID,100,VALID,0,VALID,19.5715,VALID,16,VALID,0,
2007-08-14, 00:08:00,VALID,918.193,VALID,0,VALID,100,VALID,0,VALID,19.565,VALID,16,VALID,0,
2007-08-14, 00:09:00,VALID,918.191,VALID,0,VALID,100,VALID,0,VALID,19.5393,VALID,16,VALID,0.169695,
2007-08-14, 00:10:00,VALID,918.214,VALID,0,VALID,100,VALID,-0.0169808,VALID,19.5032,VALID,17,VALID,0.358665,
2007-08-14, 00:11:00,VALID,918.217,VALID,0,VALID,100,VALID,0,VALID,19.4804,VALID,21,VALID,0.422763,
2007-08-14, 00:12:00,VALID,918.203,VALID,0,VALID,100,VALID,-0.0169808,VALID,19.5196,VALID,25,VALID,0.627308,
2007-08-14, 00:13:00,VALID,918.194,VALID,0,VALID,100,VALID,-0.0169808,VALID,19.5356,VALID,25,VALID,0.328804,
2007-08-14, 00:14:00,VALID,918.183,VALID,0,VALID,100,VALID,-0.0169808,VALID,19.5553,VALID,25,VALID,0.382241,
2007-08-14, 00:15:00,VALID,918.171,VALID,0,VALID,100,VALID,-0.0339617,VALID,19.5583,VALID,25,VALID,0.39335,
2007-08-14, 00:16:00,VALID,918.133,VALID,0,VALID,100,VALID,-0.0339617,VALID,19.5745,VALID,25,VALID,0.404204,
2007-08-14, 00:17:00,VALID,918.109,VALID,0,VALID,100,VALID,0,VALID,19.5778,VALID,25,VALID,0.36004,
2007-08-14, 00:18:00,VALID,918.08,VALID,0,VALID,100,VALID,-0.0509425,VALID,19.581,VALID,23,VALID,0.674414,
2007-08-14, 00:19:00,VALID,918.057,VALID,0,VALID,100,VALID,-0.0339617,VALID,19.6135,VALID,22,VALID,0.844295,
2007-08-14, 00:20:00,VALID,918.05,VALID,0,VALID,100,VALID,-0.0169808,VALID,19.6364,VALID,21,VALID,0.94077,
2007-08-14, 00:21:00,VALID,918.049,VALID,0,VALID,100,VALID,0,VALID,19.6489,VALID,18,VALID,0.909091,
2007-08-14, 00:22:00,VALID,918.037,VALID,0,VALID,100,VALID,0,VALID,19.6721,VALID,11,VALID,0.933416,
2007-08-14, 00:23:00,VALID,918.055,VALID,0,VALID,100,VALID,-0.0679233,VALID,19.6981,VALID,15,VALID,0.816988,
2007-08-14, 00:24:00,VALID,918.057,VALID,0,VALID,100,VALID,-0.0679233,VALID,19.7083,VALID,15,VALID,0.561357,
2007-08-14, 00:25:00,VALID,918.065,VALID,0,VALID,100,VALID,-0.0169808,VALID,19.6948,VALID,15,VALID,0.324886,
2007-08-14, 00:26:00,VALID,918.068,VALID,0,VALID,100,VALID,-0.0169808,VALID,19.6918,VALID,6,VALID,0.373998,
2007-08-14, 00:27:00,VALID,918.07,VALID,0,VALID,100,VALID,0,VALID,19.6913,VALID,308,VALID,0.326853,
2007-08-14, 00:28:00,VALID,918.062,VALID,0,VALID,100,VALID,-0.0339617,VALID,19.711,VALID,298,VALID,0.169779,
2007-08-14, 00:29:00,VALID,918.073,VALID,0,VALID,100,VALID,-0.0169808,VALID,19.7113,VALID,298,VALID,0.232777,
2007-08-14, 00:30:00,VALID,918.079,VALID,0,VALID,100,VALID,-0.0339617,VALID,19.7048,VALID,298,VALID,0.175521,
2007-08-14, 00:31:00,VALID,918.101,VALID,0,VALID,100,VALID,-0.0339617,VALID,19.6818,VALID,298,VALID,0.0521439,
2007-08-14, 00:32:00,VALID,918.125,VALID,0,VALID,100,VALID,-0.0509425,VALID,19.6299,VALID,298,VALID,0.00114329,
2007-08-14, 00:33:00,VALID,918.145,VALID,0,VALID,100,VALID,-0.0169808,VALID,19.5912,VALID,298,VALID,0.0799006,
2007-08-14, 00:34:00,VALID,918.167,VALID,0,VALID,100,VALID,-0.0339617,VALID,19.5131,VALID,298,VALID,0.0507813,
2007-08-14, 00:35:00,VALID,918.164,VALID,0,VALID,100,VALID,-0.0509425,VALID,19.4677,VALID,226,VALID,0.450036,
2007-08-14, 00:36:00,VALID,918.165,VALID,0,VALID,100,VALID,-0.101885,VALID,19.4617,VALID,172,VALID,0.529297,
2007-08-14, 00:37:00,VALID,918.155,VALID,0,VALID,100,VALID,-0.0509425,VALID,19.4423,VALID,156,VALID,0.569041,
2007-08-14, 00:38:00,VALID,918.16,VALID,0,VALID,100,VALID,-0.0169808,VALID,19.4288,VALID,142,VALID,0.785866,
2007-08-14, 00:39:00,VALID,918.16,VALID,0,VALID,100,VALID,-0.0339617,VALID,19.4258,VALID,142,VALID,0.669389,
2007-08-14, 00:40:00,VALID,918.136,VALID,0,VALID,100,VALID,-0.0679233,VALID,19.4263,VALID,138,VALID,0.801136,
2007-08-14, 00:41:00,VALID,918.124,VALID,0,VALID,100,VALID,-0.0339617,VALID,19.4251,VALID,138,VALID,1.10658,
2007-08-14, 00:42:00,VALID,918.114,VALID,0,VALID,100,VALID,-0.0509425,VALID,19.4515,VALID,137,VALID,1.07449,
2007-08-14, 00:43:00,VALID,918.105,VALID,0,VALID,100,VALID,-0.0169808,VALID,19.4515,VALID,137,VALID,1.08103,
2007-08-14, 00:44:00,VALID,918.106,VALID,0,VALID,100,VALID,-0.0509425,VALID,19.4677,VALID,141,VALID,0.978261,
2007-08-14, 00:45:00,VALID,918.102,VALID,0,VALID,100,VALID,-0.118866,VALID,19.4692,VALID,153,VALID,0.969113,
2007-08-14, 00:46:00,VALID,918.107,VALID,0,VALID,100,VALID,-0.135847,VALID,19.4754,VALID,153,VALID,0.874132,
2007-08-14, 00:47:00,VALID,918.111,VALID,0,VALID,100,VALID,-0.0849042,VALID,19.4719,VALID,150,VALID,0.725694,
2007-08-14, 00:48:00,VALID,918.111,VALID,0,VALID,100,VALID,-0.101885,VALID,19.4822,VALID,150,VALID,0.798295,
2007-08-14, 00:49:00,VALID,918.133,VALID,0,VALID,100,VALID,-0.118866,VALID,19.4819,VALID,146,VALID,0.634146,
2007-08-14, 00:50:00,VALID,918.14,VALID,0,VALID,100,VALID,-0.135847,VALID,19.4689,VALID,142,VALID,0.688477,
2007-08-14, 00:51:00,VALID,918.129,VALID,0,VALID,100,VALID,-0.101885,VALID,19.4719,VALID,142,VALID,0.45476,
2007-08-14, 00:52:00,VALID,918.126,VALID,0,VALID,100,VALID,-0.118866,VALID,19.4687,VALID,136,VALID,0.563772,
2007-08-14, 00:53:00,VALID,918.113,VALID,0,VALID,100,VALID,-0.101885,VALID,19.4722,VALID,124,VALID,0.518342,
2007-08-14, 00:54:00,VALID,918.087,VALID,0,VALID,100,VALID,-0.152827,VALID,19.4924,VALID,124,VALID,0.564499,
2007-08-14, 00:55:00,VALID,918.058,VALID,0,VALID,100,VALID,-0.118866,VALID,19.5054,VALID,124,VALID,0.395531,
2007-08-14, 00:56:00,VALID,918.036,VALID,0,VALID,100,VALID,-0.152827,VALID,19.5084,VALID,124,VALID,0.195313,
2007-08-14, 00:57:00,VALID,918.011,VALID,0,VALID,100,VALID,-0.118866,VALID,19.5243,VALID,124,VALID,0.122569,
2007-08-14, 00:58:00,VALID,917.966,VALID,0,VALID,100,VALID,-0.135847,VALID,19.5503,VALID,124,VALID,0.437128,
2007-08-14, 00:59:00,VALID,917.937,VALID,0,VALID,100,VALID,-0.135847,VALID,19.5501,VALID,123,VALID,0.516555,
2007-08-14, 01:00:00,VALID,917.925,VALID,0,VALID,100,VALID,-0.0509425,VALID,19.5421,VALID,123,VALID,0.420455,
2007-08-14, 01:01:00,VALID,917.911,VALID,0,VALID,100,VALID,-0.0339617,VALID,19.5324,VALID,123,VALID,0.130269,
2007-08-14, 01:02:00,VALID,917.889,VALID,0,VALID,100,VALID,-0.0169808,VALID,19.5226,VALID,123,VALID,0.00218023,
2007-08-14, 01:03:00,VALID,917.876,VALID,0,VALID,100,VALID,-0.0169808,VALID,19.5226,VALID,123,VALID,0.12168,
2007-08-14, 01:04:00,VALID,917.862,VALID,0,VALID,100,VALID,-0.0169808,VALID,19.5032,VALID,123,VALID,0.476918,
2007-08-14, 01:05:00,VALID,917.828,VALID,0,VALID,100,VALID,-0.0509425,VALID,19.4902,VALID,127,VALID,0.565696,
2007-08-14, 01:06:00,VALID,917.822,VALID,0,VALID,100,VALID,-0.0169808,VALID,19.4967,VALID,144,VALID,0.719283,
2007-08-14, 01:07:00,VALID,917.811,VALID,0,VALID,100,VALID,-0.0339617,VALID,19.4934,VALID,147,VALID,0.64335,
2007-08-14, 01:08:00,VALID,917.808,VALID,0,VALID,100,VALID,0,VALID,19.4904,VALID,144,VALID,0.410857,
2007-08-14, 01:09:00,VALID,917.778,VALID,0,VALID,100,VALID,0.0169808,VALID,19.4902,VALID,145,VALID,0.629192,
2007-08-14, 01:10:00,VALID,917.763,VALID,0,VALID,100,VALID,-0.0169808,VALID,19.4902,VALID,143,VALID,0.894709,
2007-08-14, 01:11:00,VALID,917.745,VALID,0,VALID,100,VALID,-0.0509425,VALID,19.4902,VALID,133,VALID,0.990189,
2007-08-14, 01:12:00,VALID,917.738,VALID,0,VALID,100,VALID,0,VALID,19.5129,VALID,133,VALID,0.739844,
2007-08-14, 01:13:00,VALID,917.708,VALID,0,VALID,100,VALID,-0.0339617,VALID,19.5066,VALID,134,VALID,0.724085,
2007-08-14, 01:14:00,VALID,917.682,VALID,0,VALID,100,VALID,-0.0169808,VALID,19.4999,VALID,139,VALID,0.906622,
2007-08-14, 01:15:00,VALID,917.658,VALID,0,VALID,100,VALID,-0.0339617,VALID,19.4902,VALID,147,VALID,0.915064,
2007-08-14, 01:16:00,VALID,917.628,VALID,0,VALID,100,VALID,-0.0679233,VALID,19.4837,VALID,153,VALID,0.917151,
2007-08-14, 01:17:00,VALID,917.608,VALID,0,VALID,100,VALID,-0.0509425,VALID,19.4872,VALID,154,VALID,0.84517,
2007-08-14, 01:18:00,VALID,917.585,VALID,0,VALID,100,VALID,-0.0339617,VALID,19.4839,VALID,153,VALID,0.648056,
2007-08-14, 01:19:00,VALID,917.557,VALID,0,VALID,100,VALID,-0.0509425,VALID,19.4837,VALID,153,VALID,0.17351,
2007-08-14, 01:20:00,VALID,917.539,VALID,0,VALID,100,VALID,-0.0169808,VALID,19.4902,VALID,153,VALID,0.144531,
2007-08-14, 01:21:00,VALID,917.509,VALID,0,VALID,100,VALID,-0.0339617,VALID,19.5032,VALID,153,VALID,0.0114462,
2007-08-14, 01:22:00,VALID,917.494,VALID,0,VALID,100,VALID,0,VALID,19.5259,VALID,153,VALID,0,
2007-08-14, 01:23:00,VALID,917.482,VALID,0,VALID,100,VALID,-0.0169808,VALID,19.5358,VALID,153,VALID,0,
2007-08-14, 01:24:00,VALID,917.474,VALID,0,VALID,100,VALID,0,VALID,19.5354,VALID,153,VALID,0,
2007-08-14, 01:25:00,VALID,917.472,VALID,0,VALID,100,VALID,-0.0339617,VALID,19.5358,VALID,153,VALID,0,
2007-08-14, 01:26:00,VALID,917.458,VALID,0,VALID,100,VALID,-0.0509425,VALID,19.5426,VALID,153,VALID,0.0501454,
2007-08-14, 01:27:00,VALID,917.436,VALID,0,VALID,100,VALID,0.0169808,VALID,19.5226,VALID,154,VALID,0.278525,
2007-08-14, 01:28:00,VALID,917.438,VALID,0,VALID,100,VALID,-0.0169808,VALID,19.5261,VALID,195,VALID,0.320122,
2007-08-14, 01:29:00,VALID,917.409,VALID,0,VALID,100,VALID,-0.0509425,VALID,19.5261,VALID,207,VALID,0.311384,
2007-08-14, 01:30:00,VALID,917.403,VALID,0,VALID,100,VALID,0,VALID,19.5386,VALID,207,VALID,0.117733,
2007-08-14, 01:31:00,VALID,917.396,VALID,0,VALID,100,VALID,-0.0509425,VALID,19.5616,VALID,207,VALID,0.169922,
2007-08-14, 01:32:00,VALID,917.396,VALID,0,VALID,100,VALID,-0.0509425,VALID,19.5586,VALID,207,VALID,0.227095,
2007-08-14, 01:33:00,VALID,917.388,VALID,0,VALID,100,VALID,-0.0339617,VALID,19.5743,VALID,207,VALID,0.388808,
2007-08-14, 01:34:00,VALID,917.393,VALID,0,VALID,100,VALID,-0.0339617,VALID,19.584,VALID,207,VALID,0.316883,
2007-08-14, 01:35:00,VALID,917.393,VALID,0,VALID,100,VALID,-0.0339617,VALID,19.584,VALID,207,VALID,0.259673,
2007-08-14, 01:36:00,VALID,917.389,VALID,0,VALID,100,VALID,0,VALID,19.5907,VALID,207,VALID,0.0868902,
2007-08-14, 01:37:00,VALID,917.387,VALID,0,VALID,100,VALID,-0.0169808,VALID,19.603,VALID,207,VALID,0.00527344,
2007-08-14, 01:38:00,VALID,917.404,VALID,0,VALID,100,VALID,-0.0169808,VALID,19.6135,VALID,207,VALID,0,
2007-08-14, 01:39:00,VALID,917.411,VALID,0,VALID,100,VALID,-0.0169808,VALID,19.6392,VALID,207,VALID,0,
2007-08-14, 01:40:00,VALID,917.396,VALID,0,VALID,100,VALID,-0.0169808,VALID,19.6524,VALID,207,VALID,0,
2007-08-14, 01:41:00,VALID,917.385,VALID,0,VALID,100,VALID,-0.0169808,VALID,19.6621,VALID,207,VALID,0,
2007-08-14, 01:42:00,VALID,917.375,VALID,0,VALID,100,VALID,0,VALID,19.6684,VALID,207,VALID,0,
2007-08-14, 01:43:00,VALID,917.382,VALID,0,VALID,100,VALID,-0.0169808,VALID,19.6876,VALID,207,VALID,0.131696,
2007-08-14, 01:44:00,VALID,917.371,VALID,0,VALID,100,VALID,0,VALID,19.6873,VALID,207,VALID,0.0152616,
2007-08-14, 01:45:00,VALID,917.374,VALID,0,VALID,100,VALID,-0.101885,VALID,19.6893,VALID,207,VALID,0,
2007-08-14, 01:46:00,VALID,917.375,VALID,0,VALID,100,VALID,-0.118866,VALID,19.6926,VALID,207,VALID,0,
2007-08-14, 01:47:00,VALID,917.387,VALID,0,VALID,100,VALID,-0.101885,VALID,19.7023,VALID,207,VALID,0,
2007-08-14, 01:48:00,VALID,917.398,VALID,0,VALID,100,VALID,-0.101885,VALID,19.7118,VALID,207,VALID,0,
2007-08-14, 01:49:00,VALID,917.414,VALID,0,VALID,100,VALID,-0.101885,VALID,19.7053,VALID,207,VALID,0,
2007-08-14, 01:50:00,VALID,917.436,VALID,0,VALID,100,VALID,-0.101885,VALID,19.725,VALID,207,VALID,0,
2007-08-14, 01:51:00,VALID,917.44,VALID,0,VALID,100,VALID,-0.118866,VALID,19.7415,VALID,207,VALID,0,
2007-08-14, 01:52:00,VALID,917.467,VALID,0,VALID,100,VALID,-0.101885,VALID,19.725,VALID,207,VALID,0,
2007-08-14, 01:53:00,VALID,917.461,VALID,0,VALID,100,VALID,-0.118866,VALID,19.7278,VALID,207,VALID,0,
2007-08-14, 01:54:00,VALID,917.456,VALID,0,VALID,100,VALID,-0.101885,VALID,19.748,VALID,207,VALID,0,
2007-08-14, 01:55:00,VALID,917.446,VALID,0,VALID,100,VALID,-0.101885,VALID,19.7442,VALID,207,VALID,0,
2007-08-14, 01:56:00,VALID,917.423,VALID,0,VALID,100,VALID,-0.118866,VALID,19.7547,VALID,207,VALID,0,
2007-08-14, 01:57:00,VALID,917.39,VALID,0,VALID,100,VALID,-0.118866,VALID,19.7477,VALID,207,VALID,0,
2007-08-14, 01:58:00,VALID,917.373,VALID,0,VALID,100,VALID,-0.118866,VALID,19.7477,VALID,207,VALID,0,
2007-08-14, 01:59:00,VALID,917.37,VALID,0,VALID,100,VALID,-0.118866,VALID,19.7737,VALID,207,VALID,0,
2007-08-14, 02:00:00,VALID,917.374,VALID,0,VALID,100,VALID,0,VALID,19.7854,VALID,207,VALID,0.00114329,
2007-08-14, 02:01:00,VALID,917.378,VALID,0,VALID,100,VALID,-0.0509425,VALID,19.7954,VALID,207,VALID,0,
2007-08-14, 02:02:00,VALID,917.381,VALID,0,VALID,100,VALID,-0.0509425,VALID,19.8046,VALID,207,VALID,0,
2007-08-14, 02:03:00,VALID,917.379,VALID,0,VALID,100,VALID,-0.0169808,VALID,19.8049,VALID,207,VALID,0,
2007-08-14, 02:04:00,VALID,917.363,VALID,0,VALID,100,VALID,-0.0169808,VALID,19.8081,VALID,207,VALID,0,
2007-08-14, 02:05:00,VALID,917.356,VALID,0,VALID,100,VALID,-0.0169808,VALID,19.8146,VALID,207,VALID,0,
2007-08-14, 02:06:00,VALID,917.353,VALID,0,VALID,100,VALID,0,VALID,19.8146,VALID,207,VALID,0,
2007-08-14, 02:07:00,VALID,917.342,VALID,0,VALID,100,VALID,-0.0339617,VALID,19.8016,VALID,207,VALID,0,
2007-08-14, 02:08:00,VALID,917.323,VALID,0,VALID,100,VALID,-0.0169808,VALID,19.7951,VALID,207,VALID,0,
2007-08-14, 02:09:00,VALID,917.33,VALID,0,VALID,100,VALID,-0.0509425,VALID,19.8049,VALID,207,VALID,0,
2007-08-14, 02:10:00,VALID,917.336,VALID,0,VALID,100,VALID,-0.0339617,VALID,19.8116,VALID,207,VALID,0,
2007-08-14, 02:11:00,VALID,917.351,VALID,0,VALID,100,VALID,-0.0169808,VALID,19.8208,VALID,207,VALID,0,
2007-08-14, 02:12:00,VALID,917.372,VALID,0,VALID,100,VALID,0,VALID,19.8273,VALID,207,VALID,0,
2007-08-14, 02:13:00,VALID,917.402,VALID,0,VALID,100,VALID,-0.0169808,VALID,19.8208,VALID,207,VALID,0.0904796,
2007-08-14, 02:14:00,VALID,917.426,VALID,0,VALID,100,VALID,0,VALID,19.8146,VALID,207,VALID,0.100142,
2007-08-14, 02:15:00,VALID,917.44,VALID,0,VALID,100,VALID,-0.118866,VALID,19.7966,VALID,207,VALID,0.391578,
2007-08-14, 02:16:00,VALID,917.444,VALID,0,VALID,100,VALID,-0.152827,VALID,19.7777,VALID,207,VALID,0.205078,
2007-08-14, 02:17:00,VALID,917.458,VALID,0,VALID,100,VALID,-0.118866,VALID,19.7642,VALID,207,VALID,0.00407609,
2007-08-14, 02:18:00,VALID,917.444,VALID,0,VALID,100,VALID,-0.118866,VALID,19.7644,VALID,207,VALID,0.142299,
2007-08-14, 02:19:00,VALID,917.448,VALID,0,VALID,100,VALID,-0.118866,VALID,19.758,VALID,201,VALID,0.428199,
2007-08-14, 02:20:00,VALID,917.431,VALID,0,VALID,100,VALID,-0.118866,VALID,19.7415,VALID,212,VALID,0.764628,
2007-08-14, 02:21:00,VALID,917.411,VALID,0,VALID,100,VALID,-0.135847,VALID,19.7155,VALID,229,VALID,0.660342,
2007-08-14, 02:22:00,VALID,917.417,VALID,0,VALID,100,VALID,-0.101885,VALID,19.7058,VALID,219,VALID,0.524009,
2007-08-14, 02:23:00,VALID,917.409,VALID,0,VALID,100,VALID,-0.118866,VALID,19.6961,VALID,216,VALID,0.315739,
2007-08-14, 02:24:00,VALID,917.406,VALID,0,VALID,100,VALID,-0.152827,VALID,19.6831,VALID,212,VALID,0.354725,
2007-08-14, 02:25:00,VALID,917.412,VALID,0,VALID,100,VALID,-0.135847,VALID,19.6896,VALID,212,VALID,0.115234,
2007-08-14, 02:26:00,VALID,917.408,VALID,0,VALID,100,VALID,-0.101885,VALID,19.6798,VALID,212,VALID,0,
2007-08-14, 02:27:00,VALID,917.4,VALID,0,VALID,100,VALID,-0.152827,VALID,19.6541,VALID,212,VALID,0,
2007-08-14, 02:28:00,VALID,917.388,VALID,0,VALID,100,VALID,-0.118866,VALID,19.6379,VALID,212,VALID,0,
2007-08-14, 02:29:00,VALID,917.38,VALID,0,VALID,100,VALID,-0.101885,VALID,19.6412,VALID,213,VALID,0.0953125,
2007-08-14, 02:30:00,VALID,917.385,VALID,0,VALID,100,VALID,-0.0679233,VALID,19.6566,VALID,217,VALID,0.219727,
2007-08-14, 02:31:00,VALID,917.374,VALID,0,VALID,100,VALID,-0.0679233,VALID,19.6399,VALID,217,VALID,0,
2007-08-14, 02:32:00,VALID,917.374,VALID,0,VALID,100,VALID,-0.0849042,VALID,19.6529,VALID,217,VALID,0,
2007-08-14, 02:33:00,VALID,917.383,VALID,0,VALID,100,VALID,-0.0849042,VALID,19.6599,VALID,217,VALID,0,
2007-08-14, 02:34:00,VALID,917.368,VALID,0,VALID,100,VALID,-0.118866,VALID,19.6691,VALID,217,VALID,0,
2007-08-14, 02:35:00,VALID,917.367,VALID,0,VALID,100,VALID,-0.0679233,VALID,19.6788,VALID,217,VALID,0,
2007-08-14, 02:36:00,VALID,917.37,VALID,0,VALID,100,VALID,-0.0679233,VALID,19.6853,VALID,217,VALID,0,
2007-08-14, 02:37:00,VALID,917.369,VALID,0,VALID,100,VALID,-0.101885,VALID,19.7021,VALID,217,VALID,0,
2007-08-14, 02:38:00,VALID,917.376,VALID,0,VALID,100,VALID,-0.101885,VALID,19.7083,VALID,217,VALID,0,
2007-08-14, 02:39:00,VALID,917.379,VALID,0,VALID,100,VALID,-0.101885,VALID,19.7115,VALID,217,VALID,0,
2007-08-14, 02:40:00,VALID,917.386,VALID,0,VALID,100,VALID,-0.0679233,VALID,19.7213,VALID,217,VALID,0,
2007-08-14, 02:41:00,VALID,917.376,VALID,0,VALID,100,VALID,-0.0849042,VALID,19.7175,VALID,217,VALID,0,
2007-08-14, 02:42:00,VALID,917.356,VALID,0,VALID,100,VALID,-0.0849042,VALID,19.7407,VALID,217,VALID,0,
2007-08-14, 02:43:00,VALID,917.342,VALID,0,VALID,100,VALID,-0.0509425,VALID,19.7372,VALID,217,VALID,0,
2007-08-14, 02:44:00,VALID,917.339,VALID,0,VALID,100,VALID,-0.0849042,VALID,19.7402,VALID,217,VALID,0,
2007-08-14, 02:45:00,VALID,917.319,VALID,0,VALID,100,VALID,0.0509425,VALID,19.7585,VALID,217,VALID,0,
2007-08-14, 02:46:00,VALID,917.331,VALID,0,VALID,100,VALID,0.0679233,VALID,19.7679,VALID,217,VALID,0.203516,
2007-08-14, 02:47:00,VALID,917.345,VALID,0,VALID,100,VALID,0.0509425,VALID,19.7515,VALID,228,VALID,0.669212,
2007-08-14, 02:48:00,VALID,917.356,VALID,0,VALID,100,VALID,0.0509425,VALID,19.7352,VALID,249,VALID,1.03264,
2007-08-14, 02:49:00,VALID,917.352,VALID,0,VALID,100,VALID,0.0849042,VALID,19.6966,VALID,263,VALID,1.00419,
2007-08-14, 02:50:00,VALID,917.35,VALID,0,VALID,100,VALID,0.0339617,VALID,19.6773,VALID,234,VALID,0.659784,
2007-08-14, 02:51:00,VALID,917.339,VALID,0,VALID,100,VALID,0.0509425,VALID,19.6546,VALID,261,VALID,1.32369,
2007-08-14, 02:52:00,VALID,917.35,VALID,0,VALID,100,VALID,0.101885,VALID,19.6185,VALID,216,VALID,1.23402,
2007-08-14, 02:53:00,VALID,917.336,VALID,0,VALID,100,VALID,0.0339617,VALID,19.5893,VALID,222,VALID,1.81995,
2007-08-14, 02:54:00,VALID,917.355,VALID,0,VALID,100,VALID,0.0509425,VALID,19.573,VALID,218,VALID,1.23456,
2007-08-14, 02:55:00,VALID,917.357,VALID,0,VALID,100,VALID,0.0509425,VALID,19.5571,VALID,232,VALID,1.61828,
2007-08-14, 02:56:00,VALID,917.356,VALID,0,VALID,100,VALID,0.0339617,VALID,19.5513,VALID,218,VALID,2.09604,
2007-08-14, 02:57:00,VALID,917.368,VALID,0,VALID,100,VALID,0.0679233,VALID,19.5478,VALID,226,VALID,2.08884,
2007-08-14, 02:58:00,VALID,917.364,VALID,0,VALID,100,VALID,0.0509425,VALID,19.5189,VALID,227,VALID,2.40498,
2007-08-14, 02:59:00,VALID,917.362,VALID,0,VALID,100,VALID,0.0169808,VALID,19.473,VALID,207,VALID,2.633,
2007-08-14, 03:00:00,VALID,917.373,VALID,0,VALID,100,VALID,0.0509425,VALID,19.4403,VALID,233,VALID,1.75335,
2007-08-14, 03:01:00,VALID,917.354,VALID,0,VALID,100,VALID,0.0849042,VALID,19.4243,VALID,220,VALID,1.96523,
2007-08-14, 03:02:00,VALID,917.363,VALID,0,VALID,100,VALID,0.0339617,VALID,19.4016,VALID,213,VALID,1.39382,
2007-08-14, 03:03:00,VALID,917.36,VALID,0,VALID,100,VALID,0,VALID,19.3722,VALID,216,VALID,1.78888,
2007-08-14, 03:04:00,VALID,917.355,VALID,0,VALID,100,VALID,0.0849042,VALID,19.3527,VALID,220,VALID,1.7603,
2007-08-14, 03:05:00,VALID,917.353,VALID,0,VALID,100,VALID,0.0849042,VALID,19.3395,VALID,216,VALID,1.48037,
2007-08-14, 03:06:00,VALID,917.372,VALID,0,VALID,100,VALID,0.0849042,VALID,19.3395,VALID,208,VALID,1.2059,
2007-08-14, 03:07:00,VALID,917.387,VALID,0,VALID,100,VALID,0.0509425,VALID,19.3298,VALID,211,VALID,1.22972,
2007-08-14, 03:08:00,VALID,917.401,VALID,0,VALID,100,VALID,0.0339617,VALID,19.2973,VALID,224,VALID,1.49982,
2007-08-14, 03:09:00,VALID,917.425,VALID,0,VALID,100,VALID,0.101885,VALID,19.2779,VALID,234,VALID,1.3105,
2007-08-14, 03:10:00,VALID,917.449,VALID,0,VALID,100,VALID,0.0849042,VALID,19.2612,VALID,237,VALID,1.4388,
2007-08-14, 03:11:00,VALID,917.441,VALID,0,VALID,100,VALID,0.0849042,VALID,19.2554,VALID,234,VALID,0.780523,
2007-08-14, 03:12:00,VALID,917.446,VALID,0,VALID,100,VALID,0.0679233,VALID,19.2457,VALID,202,VALID,1.16806,
2007-08-14, 03:13:00,VALID,917.442,VALID,0,VALID,100,VALID,0.0169808,VALID,19.2357,VALID,219,VALID,1.01777,
2007-08-14, 03:14:00,VALID,917.421,VALID,0,VALID,100,VALID,0.0339617,VALID,19.2397,VALID,241,VALID,0.611458,
2007-08-14, 03:15:00,VALID,917.442,VALID,0,VALID,100,VALID,0.0509425,VALID,19.2294,VALID,237,VALID,0.578497,
2007-08-14, 03:16:00,VALID,917.453,VALID,0,VALID,100,VALID,0.0339617,VALID,19.217,VALID,256,VALID,1.35263,
2007-08-14, 03:17:00,VALID,917.469,VALID,0,VALID,100,VALID,0.0169808,VALID,19.2007,VALID,244,VALID,1.50109,
2007-08-14, 03:18:00,VALID,917.486,VALID,0,VALID,100,VALID,0.0169808,VALID,19.175,VALID,257,VALID,1.64583,
2007-08-14, 03:19:00,VALID,917.51,VALID,0,VALID,100,VALID,0.0169808,VALID,19.1583,VALID,238,VALID,1.40573,
2007-08-14, 03:20:00,VALID,917.51,VALID,0,VALID,100,VALID,0,VALID,19.172,VALID,245,VALID,1.20941,
2007-08-14, 03:21:00,VALID,917.502,VALID,0,VALID,100,VALID,0,VALID,19.1713,VALID,237,VALID,1.44029,
2007-08-14, 03:22:00,VALID,917.51,VALID,0,VALID,100,VALID,0.0169808,VALID,19.191,VALID,233,VALID,1.37251,
2007-08-14, 03:23:00,VALID,917.514,VALID,0,VALID,100,VALID,0.0169808,VALID,19.2072,VALID,225,VALID,1.04208,
2007-08-14, 03:24:00,VALID,917.523,VALID,0,VALID,100,VALID,0,VALID,19.204,VALID,197,VALID,0.62593,
2007-08-14, 03:25:00,VALID,917.533,VALID,0,VALID,100,VALID,0.0169808,VALID,19.1977,VALID,232,VALID,1.19815,
2007-08-14, 03:26:00,VALID,917.559,VALID,0,VALID,100,VALID,0.0169808,VALID,19.2007,VALID,206,VALID,1.12049,
2007-08-14, 03:27:00,VALID,917.574,VALID,0,VALID,100,VALID,0.0339617,VALID,19.1813,VALID,221,VALID,1.59557,
2007-08-14, 03:28:00,VALID,917.572,VALID,0,VALID,99.9939,VALID,0.0169808,VALID,19.1773,VALID,233,VALID,1.1593,
2007-08-14, 03:29:00,VALID,917.596,VALID,0,VALID,99.9189,VALID,0.0509425,VALID,19.1651,VALID,235,VALID,1.64882,
2007-08-14, 03:30:00,VALID,917.6,VALID,0,VALID,99.6455,VALID,-0.0679233,VALID,19.153,VALID,221,VALID,1.54397,
2007-08-14, 03:31:00,VALID,917.607,VALID,0,VALID,99.5679,VALID,-0.0679233,VALID,19.1433,VALID,201,VALID,1.45403,
2007-08-14, 03:32:00,VALID,917.613,VALID,0,VALID,99.4967,VALID,-0.0509425,VALID,19.1433,VALID,228,VALID,1.2666,
2007-08-14, 03:33:00,VALID,917.618,VALID,0,VALID,99.3327,VALID,-0.0679233,VALID,19.1338,VALID,222,VALID,1.97384,
2007-08-14, 03:34:00,VALID,917.632,VALID,0,VALID,99.3199,VALID,-0.0509425,VALID,19.1239,VALID,208,VALID,1.13184,
2007-08-14, 03:35:00,VALID,917.648,VALID,0,VALID,99.4535,VALID,-0.0849042,VALID,19.1343,VALID,214,VALID,0.731585,
2007-08-14, 03:36:00,VALID,917.667,VALID,0,VALID,99.5234,VALID,-0.0339617,VALID,19.1241,VALID,235,VALID,0.871466,
2007-08-14, 03:37:00,VALID,917.669,VALID,0,VALID,99.559,VALID,-0.0339617,VALID,19.1072,VALID,211,VALID,0.835938,
2007-08-14, 03:38:00,VALID,917.661,VALID,0,VALID,99.5794,VALID,-0.0849042,VALID,19.1011,VALID,205,VALID,0.968572,
2007-08-14, 03:39:00,VALID,917.66,VALID,0,VALID,99.6518,VALID,-0.0509425,VALID,19.0954,VALID,191,VALID,1.15816,
2007-08-14, 03:40:00,VALID,917.654,VALID,0,VALID,99.6544,VALID,-0.0849042,VALID,19.0817,VALID,218,VALID,0.903343,
2007-08-14, 03:41:00,VALID,917.603,VALID,0,VALID,99.6735,VALID,-0.0509425,VALID,19.0951,VALID,200,VALID,0.612695,
2007-08-14, 03:42:00,VALID,917.592,VALID,0,VALID,99.7599,VALID,-0.0679233,VALID,19.0879,VALID,165,VALID,0.393999,